CAS-2T
1 41845U 16066E 18011.05388828 .00000062 00000-0 20349-4 0 9994
2 41845 98.7649 36.5305 0366202 351.4021 8.0997 14.37850062 61369
Pegasus-1
1 41846U 16066F 18010.85772846 .00000333 00000-0 61556-4 0 9995
2 41846 098.7689 035.9714 0368491 353.9356 005.7429 14.37235953061305
STARS-C
1 41895U 98067KR 18011.19088634 .00131753 00000-0 49107-3 0 9991
2 41895 51.6331 50.5936 0005940 21.2609 338.8641 15.87066555 60685
TO-89
1 41932U 98067KU 18011.51231842 .00016108 00000-0 14831-3 0 9992
2 41932 51.6390 62.7035 0004586 334.6455 25.4316 15.67815645 56124
AOBA-V3LOX3
1 41935U 98067KX 18010.56891437 .00023534 00000-0 20156-3 0 9999
2 41935 051.6380 066.1328 0004229 335.0432 025.0360 15.69301597056092
OSNSAT
1 41939U 98067KZ 18011.28401979 .11925403 12488-4 53988-3 0 9995
2 41939 51.6143 38.9585 0001158 231.0966 128.9959 16.43641769 55750
EO-88
1 42017U 17008BX 18010.92781447 .00001390 00000-0 60476-4 0 9992
2 42017 097.4700 076.7958 0005899 199.3732 160.7281 15.23931517050119
HAVELSAT
1 42700U 98067LH 18011.67253290 .00013497 00000-0 14628-3 0 9996
2 42700 51.6385 70.5042 0005355 21.1507 338.9708 15.63870965 37474
SOMP2
1 42701U 98067LJ 18011.59019843 .00014347 00000-0 15836-3 0 9999
2 42701 51.6382 71.4542 0005349 20.6616 339.4594 15.63337656 37446
Columbia
1 42702U 98067LK 18011.49200686 .00098337 00000-0 47858-3 0 9996
2 42702 51.6314 61.6917 0006778 14.3633 345.7561 15.81584094 37494
PHOENIX
1 42706U 98067LP 18011.57741060 .00013925 00000-0 15429-3 0 9994
2 42706 51.6385 71.3718 0001485 352.9893 7.1080 15.63276909 37366
X-CubeSat
1 42707U 98067LQ 18011.74536874 .00015829 00000-0 17018-3 0 9990
2 42707 51.6365 70.2212 0001727 351.3382 8.7583 15.63929632 37382
qbee
1 42708U 98067LR 18011.50761909 .00014163 00000-0 15488-3 0 9993
2 42708 51.6381 71.6415 0001723 351.1755 8.9210 15.63599429 37307
ZA-AeroSat
1 42713U 98067LU 18011.55299864 .00012778 00000-0 14818-3 0 9996
2 42713 51.6378 72.7043 0002277 319.0353 41.0470 15.62185536 37002
LINK
1 42714U 98067LV 18011.65310138 .00023880 00000-0 23079-3 0 9991
2 42714 51.6356 69.5927 0002745 327.7706 32.3121 15.66311651 37168
UPSat
1 42716U 98067LX 18010.77564980 .00021674 00000-0 21824-3 0 9996
2 42716 051.6377 074.2588 0003944 016.6970 343.4155 15.65343146037041
SpaceCube
1 42717U 98067LY 18011.39926406 .00013438 00000-0 14785-3 0 9998
2 42717 51.6376 72.4231 0003927 20.7166 339.3987 15.63493541 36364
Hoopoe
1 42718U 98067LZ 18011.72465911 .00016023 00000-0 16857-3 0 9990
2 42718 51.6382 70.0968 0003917 19.2841 340.8302 15.64470614 36427
Challenger
1 42721U 98067MA 18011.76200711 .00028087 00000-0 25323-3 0 9994
2 42721 51.6364 68.0676 0006370 2.7770 357.3261 15.67919193 36158
NJUST-1
1 42722U 98067MB 18011.15449928 .00012149 00000-0 14414-3 0 9994
2 42722 51.6385 75.2937 0006562 3.8351 356.2692 15.61633426 36008
UNSW-EC0
1 42723U 98067MC 18011.18446431 .00020143 00000-0 21006-3 0 9992
2 42723 51.6390 73.2482 0006223 1.4546 358.6466 15.64495636 36010
DUTHsat
1 42724U 98067MD 18011.16356604 .00029497 00000-0 27266-3 0 9998
2 42724 51.6370 71.5893 0005621 1.8390 358.2626 15.67280630 35953
LO-90
1 42725U 98067ME 18011.68456679 .00013741 00000-0 15590-3 0 9991
2 42725 51.6385 72.0856 0005671 7.2591 352.8484 15.62668493 35991
nSIGHT1
1 42726U 98067MF 18011.58328828 .00006151 00000-0 84069-4 0 9990
2 42726 51.6400 75.1733 0006033 11.9715 348.1420 15.58939436 35958
QBITO
1 42728U 98067MH 18011.17574941 .00017945 00000-0 19590-3 0 9995
2 42728 51.6401 73.9599 0003362 9.1586 350.9470 15.63428806 35736
Aalto-2
1 42729U 98067MJ 18011.74745294 .00015696 00000-0 17135-3 0 9994
2 42729 51.6385 71.0080 0003318 11.5154 348.5916 15.63543875 35834
SUSat
1 42730U 98067MK 18011.58513100 .00014421 00000-0 16102-3 0 9995
2 42730 51.6381 72.1665 0003420 8.5453 351.5599 15.63042841 35798
i-INSPIRE II
1 42731U 98067ML 18011.16152383 .00021597 00000-0 22194-3 0 9992
2 42731 51.6373 73.0653 0006265 317.5689 42.4821 15.64817671 35797
PolyITAN-2-SAU
1 42732U 98067MM 18011.73319348 .00016147 00000-0 17475-3 0 9993
2 42732 51.6380 70.8913 0006310 318.2866 41.7646 15.63727579 35878
SNUSAT-1
1 42733U 98067MN 18011.58635827 .00014567 00000-0 16255-3 0 9999
2 42733 51.6381 72.1659 0006423 320.1055 39.9467 15.63035766 35846
ExAlta-1
1 42734U 98067MP 18011.67812050 .00019548 00000-0 20117-3 0 9991
2 42734 51.6366 70.5165 0007734 342.0073 18.0648 15.64843223 35826
Aoxiang-1
1 42735U 98067MQ 18011.71852361 .00011929 00000-0 14069-3 0 9990
2 42735 51.6379 72.3010 0007098 3.0127 357.0909 15.61805544 37220
BeEagleSat
1 42736U 98067MR 18011.68550601 .00013391 00000-0 15334-3 0 9990
2 42736 51.6377 72.0789 0006968 1.4423 358.6590 15.62447722 35913
Atlantis
1 42737U 98067MS 18011.54567881 .00071319 00000-0 43006-3 0 9995
2 42737 51.6307 64.3064 0007427 359.8239 0.2757 15.76971742 35894
CAS-4B
1 42759U 17034B 18011.09521236 -.00000028 00000-0 11853-4 0 9994
2 42759 43.0174 225.5819 0008301 212.8318 288.9288 15.09161573 31712
CAS-4A
1 42761U 17034D 18011.08407862 .00000023 00000-0 14975-4 0 9996
2 42761 43.0179 225.5120 0008580 213.4162 284.2346 15.09237693 31708
UCLSat
1 42765U 17036A 18011.10626557 .00001133 00000-0 53535-4 0 9997
2 42765 97.4240 73.3356 0010371 266.3678 93.6371 15.21422893 30828
NIUSat
1 42766U 17036B 18011.14778473 .00000912 00000-0 45375-4 0 9994
2 42766 97.4243 72.9842 0014635 251.3715 108.5931 15.20047685 30672
LituanicaSAT 2
1 42768U 17036D 18011.75904032 .00001821 00000-0 85812-4 0 9995
2 42768 97.4248 73.6961 0014563 251.9716 107.9933 15.20703182 30784
Aalto 1
1 42775U 17036L 18011.67910329 .00000813 00000-0 40379-4 0 9999
2 42775 97.4238 73.6420 0012798 249.9727 110.0131 15.20457783 30719
URSA MAIOR
1 42776U 17036M 18010.75145475 .00000799 00000-0 39636-4 0 9997
2 42776 097.4243 072.7513 0012635 253.7311 106.2535 15.20518739030579
Max Valier Sat
1 42778U 17036P 18010.89451441 .00000866 00000-0 42180-4 0 9990
2 42778 097.4262 073.0612 0011202 258.7470 101.2507 15.20967626030595
Pegasus
1 42784U 17036V 18010.73070948 .00001069 00000-0 50928-4 0 9994
2 42784 097.4243 072.9276 0010876 267.7960 092.2030 15.21257310030576
NUDATSat
1 42787U 17036Y 18011.68553172 .00001623 00000-0 74816-4 0 9995
2 42787 97.4245 73.9447 0010490 263.9178 96.0863 15.21663132 30561
SUCHAI 1
1 42788U 17036Z 18011.10673616 .00001246 00000-0 58493-4 0 9993
2 42788 97.4243 73.3396 0010515 266.3689 93.6345 15.21461870 30708
